This is the latest recevied weather packets stored in our database for station/object 9W2SSS-1. If no packets are shown the sender has not sent any weather packets the latest 10 day(s).
| Time | Temp. | Humidity | Pressure | Rain* | Wind** | Luminosity | Snow |
|---|---|---|---|---|---|---|---|
| 1777585394 | 28.89° C | 62% | 1008.5 hPa | - | - | - | - |
| 1777584194 | 28.89° C | 55% | 1008.1 hPa | - | - | - | - |
| 1777582994 | 28.89° C | 53% | 1007.8 hPa | - | - | - | - |
| 1777581794 | 28.89° C | 54% | 1007.9 hPa | - | - | - | - |
| 1777580594 | 28.89° C | 55% | 1007.9 hPa | - | - | - | - |
| 1777579394 | 29.44° C | 55% | 1007.9 hPa | - | - | - | - |
| 1777578194 | 29.44° C | 54% | 1008 hPa | - | - | - | - |
| 1777576994 | 29.44° C | 57% | 1008.4 hPa | - | - | - | - |
| 1777575794 | 29.44° C | 51% | 1008.5 hPa | - | - | - | - |
| 1777574594 | 29.44° C | 50% | 1008.6 hPa | - | - | - | - |
| 1777573394 | 30° C | 53% | 1008.8 hPa | - | - | - | - |
| 1777572194 | 30° C | 51% | 1009.4 hPa | - | - | - | - |
| 1777570994 | 30° C | 52% | 1009.6 hPa | - | - | - | - |
| 1777569794 | 30° C | 55% | 1009.6 hPa | - | - | - | - |
| 1777568594 | 30.56° C | 57% | 1009.7 hPa | - | - | - | - |
| 1777567394 | 30.56° C | 56% | 1009.8 hPa | - | - | - | - |
| 1777566193 | 31.11° C | 58% | 1010.1 hPa | - | - | - | - |
| 1777564993 | 31.11° C | 58% | 1010.1 hPa | - | - | - | - |
| 1777563793 | 31.67° C | 60% | 1010.1 hPa | - | - | - | - |
| 1777562593 | 32.22° C | 61% | 1010 hPa | - | - | - | - |
| 1777561393 | 32.22° C | 60% | 1010 hPa | - | - | - | - |
| 1777560193 | 32.22° C | 59% | 1010.2 hPa | - | - | - | - |
| 1777558993 | 32.22° C | 59% | 1009.9 hPa | - | - | - | - |
| 1777557793 | 32.22° C | 57% | 1009.7 hPa | - | - | - | - |
| 1777556593 | 32.78° C | 58% | 1009.4 hPa | - | - | - | - |
* Rain since midnight (hover to see other rain measurements)
** Current wind speed in m/s (hover to see current wind gust speed)